Showing default

COSMOS 2456 (GLONASS), 36111

Orbit data source: Space-Track

COSMOS 2456 (GLONASS), 36111 is a Commonwealth of Independent States-origin payload satellite in MEO that was launched on Mon, 14 Dec 2009 UTC via a PROTON-M/DM-2 launch vehicle from the Tyuratam Missile And Space Complex (TTMTR). Payload-class satellites include a variety of spacecraft equipped with specific instruments for various scientific and technological missions. These include communications satellites like Starlink; space stations such as the ISS; scientific satellites like the Hubble; Earth observation satellites from companies like Planet Labs, Umbra, and HawkEye 360; GPS; miniature CubeSats for education and research; and military/defense satellites.

Loading next visibility...
Identifier
36111, 2009-070A
Orbit
MEO
Country
Flag of CISCIS
Related business
Manufacturer
Resehetnev ISS
Mission
Operational Defense Navigation
Bus & Motor
URAGAN, Unknown motor
Mass
1,450 kg wet, ~1,200 kg dry
Launch date (UTC)
2009-12-14 (16 years ago)
Launch vehicle
PROTON-M/DM-2
Launch site
Tyuratam Missile And Space Complex (TTMTR)
Object type
Payload
Rocket body
Debris
Shape & HBR
Cyl + 1 Ant + 2 Pan, 3.9 m
Radar Cross Section
8.467 m², Large (>1 m²)

Expand to show TLE details & history
Last TLE update: 4 days ago

TLE from 4 days ago
0 COSMOS 2456 (GLONASS)
1 36111U 09070A   25343.24160716 -.00000017  00000-0  00000-0 0  9991
2 36111  64.8981  77.4578 0002838 298.5783  37.1692  2.13103359124373
Epoch: 2025-12-09T05:47Z
TLE epoch observation values (Epoch: 2025-12-09T05:47:54.858Z)
Latitude
-21.87174°
Longitude
-98.55396°
Altitude
19,130.198 km
Speed
3.954 km/s
True Right ascension
04h 26m 36s
True Declination
-21° 50' 19"
Sunlit
Object was in daylight at epoch
Visualization orbit readout
Latitude
Unknown
Longitude
Unknown
Altitude
Unknown
Speed
Unknown
Apparent Right ascension
Unknown
Apparent Declination
Unknown
Sunlit
N/A
Visualization observer readout
Local Sidereal Time
05:22:58
Azimuth
Unknown
Elevation
Unknown
Doppler factor
Unknown
Orbital elements
Apogee altitude
19,136.636 km
Perigee altitude
19,122.158 km
Semi-major axis
25,507.534 km
Eccentricity
0.00028
Inclination
64.8981°
RAAN
77.4578°
Arg. of periapsis
298.5783°
True anomaly
37.18885°
Mean anomaly
37.1692°
Eccentric anomaly
37.17903°
Mean motion
0.53277 °/min
Orbital period
675.71 mins
BSTAR
0
Loading maneuver chart data...
Computing Atmospheric mass density...
Loading historical data...
Loading historical data...
Loading historical data...
Loading historical data...
Loading historical data...
Loading historical data...
Loading historical data...

Documentation

Showing up to 5 results
|